User: anonymous   Login
Location: Caltech
(34.1382°N, 118.1253°W)
Time: 03:49:32
(UTC-07:00)
Language:

ADEOS II - Orbit

View from above orbital plane
View from above orbital plane
View from above satellite
View from above satellite

Ground track
Ground track

The orbit data is extracted from the following two-line orbital elements,

1 27597U 02056A   17087.92378147 +.00000075 +00000-0 +47530-4 0  9992
2 27597 098.3610 060.9313 0001115 134.4833 225.6439 14.27275866743974
Epoch (UTC): 28 March 2017 22:10:14
Eccentricity: 0.0001115
inclination: 98.3610°
perigee height: 800 km
apogee height: 801 km
right ascension of ascending node: 60.9313°
argument of perigee: 134.4833°
revolutions per day: 14.27275866
mean anomaly at epoch: 225.6439°
orbit number at epoch: 74397

The dashed part of the orbit path shows where the satellite is in the earth's shadow,  

DLR